When you browse on this site, cookies collect data to enhance your experience and personalize the content and advertising you see.
Visit our Privacy Policy to learn more. By continuing to use the site, you agree to this use of cookies and data.

Hourly Weather Ropotamo

Today, 11 July, Saturday

Time Temperature Precipitation Wind Pressure Humidity
00:00 +20°C° 0 mm 4 mps 759 mmHg 80%
01:00 +20°C° 0 mm 4 mps 759 mmHg 80%
02:00 +20°C° 0 mm 4 mps 759 mmHg 82%
03:00 +20°C° 0 mm 4 mps 759 mmHg 83%
04:00 +20°C° 0 mm 4 mps 759 mmHg 84%
05:00 +20°C° 0 mm 4 mps 759 mmHg 85%
06:00 +21°C° 0 mm 4 mps 759 mmHg 78%
07:00 +23°C° 0 mm 5 mps 759 mmHg 71%
08:00 +26°C° 0 mm 5 mps 759 mmHg 65%
09:00 +27°C° 0 mm 5 mps 759 mmHg 61%
10:00 +27°C° 0 mm 6 mps 759 mmHg 58%
11:00 +28°C° 0 mm 6 mps 759 mmHg 55%
12:00 +28°C° 0 mm 6 mps 758 mmHg 55%
13:00 +28°C° 0 mm 6 mps 758 mmHg 55%
14:00 +28°C° 0 mm 6 mps 758 mmHg 55%
15:00 +28°C° 0 mm 6 mps 758 mmHg 57%
16:00 +28°C° 0 mm 6 mps 757 mmHg 60%
17:00 +27°C° 0 mm 5 mps 757 mmHg 63%
18:00 +26°C° 0 mm 5 mps 757 mmHg 70%
19:00 +23°C° 0 mm 4 mps 757 mmHg 78%
20:00 +21°C° 0 mm 4 mps 757 mmHg 85%
21:00 +21°C° 0 mm 3 mps 757 mmHg 87%
22:00 +21°C° 0 mm 3 mps 757 mmHg 88%
23:00 +20°C° 0 mm 3 mps 757 mmHg 89%

Tomorrow, 12 July, Sunday

Time Temperature Precipitation Wind Pressure Humidity
00:00 +20°C° 0 mm 3 mps 757 mmHg 90%
01:00 +20°C° 0 mm 3 mps 756 mmHg 91%
02:00 +19°C° 0 mm 3 mps 756 mmHg 91%
03:00 +19°C° 0 mm 3 mps 756 mmHg 92%
04:00 +19°C° 0 mm 3 mps 756 mmHg 92%
05:00 +19°C° 0 mm 3 mps 756 mmHg 92%
06:00 +20°C° 0 mm 3 mps 756 mmHg 85%
07:00 +22°C° 0 mm 3 mps 756 mmHg 78%
08:00 +25°C° 0 mm 3 mps 756 mmHg 71%
09:00 +26°C° 0 mm 3 mps 756 mmHg 62%
10:00 +28°C° 0 mm 3 mps 756 mmHg 54%
11:00 +29°C° 0 mm 3 mps 756 mmHg 46%
12:00 +30°C° 0 mm 3 mps 756 mmHg 43%
13:00 +31°C° 0 mm 3 mps 756 mmHg 41%
14:00 +31°C° 0 mm 3 mps 756 mmHg 38%
15:00 +31°C° 0 mm 3 mps 756 mmHg 41%
16:00 +30°C° 0 mm 3 mps 755 mmHg 43%
17:00 +30°C° 0 mm 3 mps 755 mmHg 46%
18:00 +28°C° 0 mm 2 mps 755 mmHg 58%
19:00 +25°C° 0 mm 2 mps 755 mmHg 70%
20:00 +23°C° 0 mm 1 mps 755 mmHg 83%
21:00 +23°C° 0 mm 2 mps 755 mmHg 82%
22:00 +21°C° 0 mm 2 mps 756 mmHg 81%
23:00 +21°C° 0 mm 2 mps 756 mmHg 80%

Day after tomorrow, 13 July, Monday

Time Temperature Precipitation Wind Pressure Humidity
00:00 +21°C° 0 mm 4 mps 756 mmHg 75%
01:00 +21°C° 0 mm 6 mps 756 mmHg 71%
02:00 +21°C° 0 mm 8 mps 756 mmHg 67%
03:00 +20°C° 0 mm 8 mps 756 mmHg 70%
04:00 +18°C° 0 mm 7 mps 756 mmHg 74%
05:00 +17°C° 0 mm 6 mps 756 mmHg 78%
06:00 +19°C° 0 mm 6 mps 757 mmHg 77%
07:00 +18°C° 0 mm 7 mps 757 mmHg 76%
08:00 +18°C° 0 mm 7 mps 757 mmHg 75%
09:00 +20°C° 0 mm 7 mps 757 mmHg 72%
10:00 +21°C° 0 mm 7 mps 757 mmHg 68%
11:00 +21°C° 0 mm 7 mps 758 mmHg 65%
12:00 +21°C° 0 mm 7 mps 758 mmHg 64%
13:00 +21°C° 0 mm 8 mps 758 mmHg 64%
14:00 +21°C° 0 mm 8 mps 758 mmHg 63%
15:00 +22°C° 0 mm 7 mps 758 mmHg 60%
16:00 +22°C° 0 mm 7 mps 758 mmHg 56%
17:00 +22°C° 0 mm 6 mps 757 mmHg 53%
18:00 +21°C° 0 mm 6 mps 758 mmHg 57%
19:00 +20°C° 0 mm 5 mps 758 mmHg 61%
20:00 +20°C° 0 mm 5 mps 758 mmHg 65%
21:00 +19°C° 0 mm 5 mps 758 mmHg 68%
22:00 +17°C° 0 mm 5 mps 758 mmHg 72%
23:00 +17°C° 0 mm 5 mps 758 mmHg 75%

14 July, Tuesday

Time Temperature Precipitation Wind Pressure Humidity
00:00 +16°C° 0 mm 5 mps 758 mmHg 77%
01:00 +16°C° 0 mm 5 mps 758 mmHg 80%
02:00 +15°C° 0 mm 5 mps 758 mmHg 82%
03:00 +15°C° 0 mm 5 mps 758 mmHg 83%
04:00 +15°C° 0 mm 4 mps 758 mmHg 85%
05:00 +14°C° 0 mm 4 mps 758 mmHg 86%
06:00 +17°C° 0 mm 4 mps 759 mmHg 77%
07:00 +19°C° 0 mm 5 mps 759 mmHg 69%
08:00 +21°C° 0 mm 5 mps 759 mmHg 61%
09:00 +22°C° 0 mm 5 mps 759 mmHg 54%
10:00 +23°C° 0 mm 5 mps 759 mmHg 47%
11:00 +26°C° 0 mm 6 mps 759 mmHg 41%
12:00 +26°C° 0 mm 5 mps 759 mmHg 41%
13:00 +26°C° 0 mm 5 mps 758 mmHg 41%
14:00 +26°C° 0 mm 5 mps 758 mmHg 41%
15:00 +26°C° 0 mm 5 mps 758 mmHg 43%
16:00 +25°C° 0 mm 5 mps 758 mmHg 45%
17:00 +25°C° 0 mm 5 mps 758 mmHg 47%
18:00 +22°C° 0 mm 4 mps 758 mmHg 56%
19:00 +21°C° 0 mm 4 mps 758 mmHg 64%
20:00 +19°C° 0 mm 3 mps 758 mmHg 72%
21:00 +18°C° 0 mm 3 mps 758 mmHg 75%
22:00 +18°C° 0 mm 2 mps 758 mmHg 78%
23:00 +17°C° 0 mm 2 mps 759 mmHg 81%

15 July, Wednesday

Time Temperature Precipitation Wind Pressure Humidity
00:00 +17°C° 0 mm 2 mps 758 mmHg 81%
01:00 +17°C° 0 mm 2 mps 758 mmHg 82%
02:00 +16°C° 0 mm 2 mps 758 mmHg 82%
03:00 +16°C° 0 mm 2 mps 758 mmHg 83%
04:00 +16°C° 0 mm 2 mps 758 mmHg 85%
05:00 +16°C° 0 mm 2 mps 758 mmHg 86%
06:00 +18°C° 0 mm 2 mps 758 mmHg 78%
07:00 +20°C° 0 mm 2 mps 758 mmHg 70%
08:00 +23°C° 0 mm 2 mps 758 mmHg 61%
09:00 +24°C° 0 mm 3 mps 758 mmHg 57%
10:00 +26°C° 0 mm 4 mps 758 mmHg 52%
11:00 +27°C° 0 mm 4 mps 758 mmHg 48%
12:00 +27°C° 0 mm 4 mps 758 mmHg 46%
13:00 +28°C° 0 mm 5 mps 758 mmHg 45%
14:00 +28°C° 0 mm 5 mps 758 mmHg 43%
15:00 +27°C° 0 mm 5 mps 757 mmHg 45%
16:00 +27°C° 0 mm 4 mps 757 mmHg 47%
17:00 +26°C° 0 mm 4 mps 757 mmHg 49%
18:00 +23°C° 0 mm 4 mps 757 mmHg 57%
19:00 +21°C° 0 mm 4 mps 757 mmHg 65%
20:00 +19°C° 0 mm 3 mps 757 mmHg 74%
21:00 +19°C° 0 mm 3 mps 757 mmHg 76%
22:00 +19°C° 0 mm 3 mps 757 mmHg 79%
23:00 +18°C° 0 mm 2 mps 757 mmHg 81%

16 July, Thursday

Time Temperature Precipitation Wind Pressure Humidity
00:00 +18°C° 0 mm 2 mps 757 mmHg 82%
01:00 +18°C° 0 mm 2 mps 757 mmHg 82%
02:00 +18°C° 0 mm 2 mps 757 mmHg 82%
03:00 +17°C° 0 mm 2 mps 756 mmHg 83%
04:00 +17°C° 0 mm 2 mps 756 mmHg 84%
05:00 +17°C° 0 mm 2 mps 756 mmHg 84%
06:00 +19°C° 0 mm 2 mps 756 mmHg 77%
07:00 +21°C° 0 mm 2 mps 756 mmHg 69%
08:00 +24°C° 0 mm 3 mps 756 mmHg 61%
09:00 +25°C° 0 mm 3 mps 756 mmHg 56%
10:00 +27°C° 0 mm 3 mps 756 mmHg 51%
11:00 +28°C° 0 mm 4 mps 756 mmHg 46%
12:00 +28°C° 0 mm 4 mps 756 mmHg 44%
13:00 +28°C° 0 mm 4 mps 756 mmHg 42%
14:00 +29°C° 0 mm 5 mps 755 mmHg 40%
15:00 +28°C° 0 mm 4 mps 755 mmHg 41%
16:00 +28°C° 0 mm 4 mps 755 mmHg 42%
17:00 +27°C° 0 mm 4 mps 755 mmHg 43%
18:00 +25°C° 0 mm 3 mps 755 mmHg 51%
19:00 +22°C° 0 mm 3 mps 755 mmHg 59%
20:00 +20°C° 0 mm 2 mps 755 mmHg 66%
21:00 +19°C° 0 mm 2 mps 755 mmHg 70%
22:00 +19°C° 0 mm 2 mps 755 mmHg 73%
23:00 +19°C° 0 mm 1 mps 755 mmHg 76%
Show more